| time (UTC) | temp C | wind direction | speed KPH | gust KPH | rain 1hr cm | rain 24hr cm | rain mn cm | humidity % | barometer mb |
| 20260507144551 | 27 | 86 | 9.7 | 25.7 | 0.00 | 0.00 | 0.00 | 82 | 1015.1 |
| 20260507143048 | 27 | 210 | 6.4 | 22.5 | 0.00 | 0.00 | 0.00 | 82 | 1014.9 |
| 20260507141554 | 26 | 195 | 9.7 | 22.5 | 0.00 | 0.00 | 0.00 | 84 | 1015.0 |
| 20260507140106 | 26 | 285 | 9.7 | 22.5 | 0.00 | 0.00 | 0.00 | 84 | 1015.2 |
| 20260507134553 | 26 | 235 | 12.9 | 20.9 | 0.00 | 0.03 | 0.00 | 83 | 1015.2 |
| 20260507133051 | 26 | 214 | 8.0 | 19.3 | 0.00 | 0.03 | 0.00 | 86 | 1015.3 |
| 20260507131600 | 25 | 201 | 8.0 | 17.7 | 0.00 | 0.03 | 0.00 | 88 | 1015.3 |
| 20260507130100 | 25 | 188 | 4.8 | 12.9 | 0.00 | 0.03 | 0.00 | 87 | 1015.3 |
| 20260507124604 | 26 | 231 | 3.2 | 16.1 | 0.00 | 0.03 | 0.00 | 85 | 1015.1 |
| 20260507123055 | 25 | 188 | 6.4 | 12.9 | 0.00 | 0.03 | 0.00 | 88 | 1014.8 |
| 20260507121548 | 24 | 207 | 3.2 | 11.3 | 0.00 | 0.03 | 0.00 | 91 | 1014.6 |
| 20260507120051 | 23 | 186 | 1.6 | 9.7 | 0.00 | 0.03 | 0.00 | 92 | 1014.8 |
| 20260507114549 | 23 | 220 | 4.8 | 11.3 | 0.00 | 0.03 | 0.00 | 93 | 1014.4 |
| 20260507113050 | 23 | 221 | 1.6 | 9.7 | 0.00 | 0.03 | 0.00 | 93 | 1013.9 |
| 20260507111551 | 23 | 165 | 4.8 | 11.3 | 0.00 | 0.03 | 0.00 | 93 | 1013.4 |
| 20260507110052 | 23 | 171 | 4.8 | 12.9 | 0.00 | 0.03 | 0.00 | 93 | 1013.1 |
| 20260507104547 | 23 | 196 | 4.8 | 16.1 | 0.00 | 0.03 | 0.00 | 93 | 1013.1 |
| 20260507103052 | 23 | 205 | 4.8 | 12.9 | 0.00 | 0.03 | 0.00 | 93 | 1012.9 |
| 20260507101550 | 22 | 160 | 6.4 | 14.5 | 0.00 | 0.03 | 0.00 | 94 | 1012.7 |
| 20260507100051 | 22 | 161 | 8.0 | 11.3 | 0.00 | 0.03 | 0.00 | 94 | 1012.7 |
| 20260507094555 | 22 | 190 | 8.0 | 16.1 | 0.00 | 0.03 | 0.00 | 95 | 1012.8 |
| 20260507093052 | 22 | 160 | 4.8 | 11.3 | 0.00 | 0.03 | 0.00 | 95 | 1012.8 |
| 20260507091553 | 22 | 184 | 6.4 | 14.5 | 0.00 | 0.03 | 0.00 | 95 | 1012.9 |
| 20260507090049 | 22 | 212 | 8.0 | 16.1 | 0.00 | 0.03 | 0.00 | 95 | 1012.9 |
| 20260507084553 | 22 | 195 | 8.0 | 14.5 | 0.00 | 0.03 | 0.00 | 95 | 1013.1 |
| 20260507083050 | 23 | 166 | 6.4 | 14.5 | 0.00 | 0.03 | 0.00 | 95 | 1013.1 |
| 20260507081551 | 22 | 205 | 6.4 | 14.5 | 0.00 | 0.03 | 0.00 | 95 | 1013.4 |
| 20260507080116 | 22 | 172 | 6.4 | 14.5 | 0.00 | 0.03 | 0.00 | 95 | 1013.5 |
| 20260507074601 | 23 | 179 | 4.8 | 12.9 | 0.00 | 0.03 | 0.00 | 94 | 1013.4 |
| 20260507073100 | 22 | 193 | 6.4 | 17.7 | 0.00 | 0.03 | 0.00 | 95 | 1013.6 |
| 20260507071601 | 22 | 113 | 6.4 | 14.5 | 0.00 | 0.03 | 0.00 | 95 | 1013.7 |
| 20260507070051 | 22 | 146 | 8.0 | 14.5 | 0.00 | 0.03 | 0.00 | 95 | 1013.5 |
| 20260507064553 | 22 | 137 | 8.0 | 20.9 | 0.00 | 0.03 | 0.00 | 94 | 1013.7 |
| 20260507063049 | 22 | 145 | 4.8 | 14.5 | 0.00 | 0.03 | 0.00 | 94 | 1014.0 |
| 20260507061547 | 23 | 197 | 4.8 | 12.9 | 0.00 | 0.03 | 0.00 | 94 | 1014.4 |
| 20260507060050 | 23 | 161 | 4.8 | 11.3 | 0.00 | 0.03 | 0.00 | 94 | 1014.5 |
| 20260507054552 | 22 | 191 | 6.4 | 17.7 | 0.00 | 0.03 | 0.00 | 94 | 1014.5 |
| 20260507053048 | 22 | 183 | 4.8 | 16.1 | 0.00 | 0.03 | 0.00 | 94 | 1014.4 |
| 20260507051549 | 22 | 183 | 8.0 | 17.7 | 0.00 | 0.03 | 0.00 | 94 | 1014.4 |
| 20260507050047 | 22 | 174 | 6.4 | 14.5 | 0.00 | 0.03 | 0.00 | 94 | 1014.7 |
| 20260507044550 | 22 | 180 | 6.4 | 14.5 | 0.00 | 0.03 | 0.03 | 94 | 1014.7 |
| 20260507043050 | 23 | 139 | 8.0 | 22.5 | 0.00 | 0.03 | 0.03 | 94 | 1014.8 |
| 20260507041555 | 23 | 115 | 6.4 | 16.1 | 0.00 | 0.03 | 0.03 | 94 | 1014.9 |
| 20260507040100 | 23 | 115 | 6.4 | 14.5 | 0.00 | 0.03 | 0.03 | 94 | 1014.9 |
| 20260507034555 | 23 | 216 | 4.8 | 11.3 | 0.00 | 0.03 | 0.03 | 93 | 1015.5 |
| 20260507033053 | 23 | 140 | 6.4 | 14.5 | 0.00 | 0.03 | 0.03 | 93 | 1015.4 |
| 20260507031550 | 23 | 158 | 3.2 | 12.9 | 0.00 | 0.03 | 0.03 | 93 | 1015.6 |
| 20260507030053 | 22 | 138 | 4.8 | 12.9 | 0.00 | 0.03 | 0.03 | 93 | 1015.2 |
| 20260507024547 | 22 | 152 | 3.2 | 8.0 | 0.00 | 0.03 | 0.03 | 93 | 1015.3 |
| 20260507023047 | 23 | 108 | 3.2 | 6.4 | 0.00 | 0.03 | 0.03 | 92 | 1015.0 |
| 20260507021550 | 23 | 146 | 4.8 | 9.7 | 0.00 | 0.03 | 0.03 | 92 | 1014.9 |
| 20260507020101 | 23 | 155 | 4.8 | 8.0 | 0.00 | 0.03 | 0.03 | 92 | 1015.1 |
| 20260507014601 | 23 | 127 | 4.8 | 9.7 | 0.00 | 0.03 | 0.03 | 92 | 1014.7 |
| 20260507013048 | 23 | 186 | 6.4 | 9.7 | 0.00 | 0.03 | 0.03 | 91 | 1014.7 |
| 20260507011601 | 23 | 153 | 3.2 | 9.7 | 0.00 | 0.03 | 0.03 | 91 | 1015.3 |
| 20260507010050 | 23 | 139 | 4.8 | 14.5 | 0.00 | 0.03 | 0.03 | 90 | 1014.9 |
| 20260507004544 | 23 | 193 | 3.2 | 9.7 | 0.00 | 0.03 | 0.03 | 89 | 1014.9 |
| 20260507003050 | 23 | 181 | 3.2 | 14.5 | 0.00 | 0.03 | 0.03 | 88 | 1014.9 |
| 20260507001605 | 23 | 162 | 4.8 | 16.1 | 0.00 | 0.03 | 0.03 | 86 | 1014.4 |
| 20260507000058 | 23 | 145 | 4.8 | 11.3 | 0.00 | 0.03 | 0.03 | 84 | 1014.5 |
| 20260506234549 | 24 | 174 | 4.8 | 11.3 | 0.00 | 0.03 | 0.03 | 83 | 1014.2 |
| 20260506233056 | 25 | 193 | 8.0 | 12.9 | 0.00 | 0.03 | 0.03 | 81 | 1014.4 |
| 20260506231548 | 25 | 226 | 8.0 | 17.7 | 0.00 | 0.03 | 0.03 | 79 | 1014.5 |
| 20260506230054 | 25 | 179 | 6.4 | 17.7 | 0.00 | 0.03 | 0.03 | 77 | 1014.4 |
| 20260506224549 | 26 | 155 | 6.4 | 14.5 | 0.00 | 0.03 | 0.03 | 73 | 1014.5 |
| 20260506223048 | 26 | 165 | 6.4 | 17.7 | 0.00 | 0.03 | 0.03 | 72 | 1014.6 |
| 20260506221547 | 26 | 122 | 8.0 | 14.5 | 0.00 | 0.03 | 0.03 | 71 | 1014.7 |
| 20260506220058 | 26 | 157 | 9.7 | 16.1 | 0.00 | 0.03 | 0.03 | 70 | 1014.9 |
| 20260506214548 | 27 | 152 | 8.0 | 17.7 | 0.00 | 0.03 | 0.03 | 69 | 1015.2 |
| 20260506213057 | 27 | 110 | 8.0 | 16.1 | 0.00 | 0.03 | 0.03 | 67 | 1015.3 |
| 20260506211550 | 27 | 142 | 8.0 | 16.1 | 0.00 | 0.03 | 0.03 | 69 | 1015.4 |
| 20260506210057 | 27 | 161 | 6.4 | 14.5 | 0.00 | 0.03 | 0.03 | 67 | 1015.6 |
| 20260506204550 | 27 | 187 | 9.7 | 24.1 | 0.00 | 0.03 | 0.03 | 70 | 1015.7 |
| 20260506203137 | 27 | 161 | 6.4 | 17.7 | 0.00 | 0.03 | 0.03 | 70 | 1015.8 |
| 20260506201552 | 27 | 203 | 4.8 | 17.7 | 0.00 | 0.03 | 0.03 | 69 | 1016.2 |
| 20260506200052 | 28 | 241 | 6.4 | 20.9 | 0.00 | 0.03 | 0.03 | 68 | 1016.6 |
| 20260506194549 | 28 | 205 | 4.8 | 17.7 | 0.00 | 0.03 | 0.03 | 66 | 1016.8 |
| 20260506193048 | 28 | 199 | 3.2 | 17.7 | 0.00 | 0.03 | 0.03 | 66 | 1016.8 |
| 20260506191552 | 28 | 73 | 3.2 | 16.1 | 0.00 | 0.03 | 0.03 | 64 | 1017.0 |
| 20260506190050 | 28 | 158 | 6.4 | 16.1 | 0.00 | 0.03 | 0.03 | 64 | 1017.3 |
| 20260506184556 | 28 | 212 | 4.8 | 16.1 | 0.00 | 0.03 | 0.03 | 65 | 1017.4 |
| 20260506183042 | 28 | 302 | 8.0 | 17.7 | 0.00 | 0.03 | 0.03 | 63 | 1017.2 |
| 20260506181550 | 28 | 183 | 4.8 | 14.5 | 0.00 | 0.03 | 0.03 | 63 | 1017.3 |
| 20260506180054 | 28 | 141 | 6.4 | 19.3 | 0.00 | 0.03 | 0.03 | 67 | 1017.6 |
| 20260506174555 | 28 | 274 | 6.4 | 19.3 | 0.00 | 0.03 | 0.03 | 67 | 1017.6 |
| 20260506173055 | 28 | 156 | 6.4 | 17.7 | 0.00 | 0.03 | 0.03 | 68 | 1017.6 |
| 20260506171547 | 28 | 238 | 3.2 | 20.9 | 0.00 | 0.03 | 0.03 | 65 | 1017.8 |
| 20260506170048 | 28 | 200 | 8.0 | 16.1 | 0.00 | 0.03 | 0.03 | 70 | 1017.9 |
| 20260506164552 | 27 | 269 | 8.0 | 16.1 | 0.00 | 0.03 | 0.03 | 70 | 1017.6 |
| 20260506163102 | 27 | 134 | 8.0 | 19.3 | 0.00 | 0.03 | 0.03 | 72 | 1017.5 |
| 20260506161550 | 27 | 184 | 8.0 | 16.1 | 0.00 | 0.03 | 0.03 | 73 | 1017.5 |
| 20260506160051 | 27 | 184 | 9.7 | 24.1 | 0.00 | 0.03 | 0.03 | 73 | 1017.3 |
| 20260506154553 | 27 | 255 | 6.4 | 19.3 | 0.00 | 0.03 | 0.03 | 73 | 1017.4 |
| 20260506153057 | 26 | 167 | 9.7 | 17.7 | 0.00 | 0.03 | 0.03 | 74 | 1017.3 |
| 20260506151549 | 26 | 139 | 9.7 | 17.7 | 0.00 | 0.03 | 0.03 | 76 | 1017.0 |
| 20260506150051 | 26 | 148 | 8.0 | 19.3 | 0.00 | 0.03 | 0.03 | 76 | 1017.0 |